This demonstration page uses our WeatherBlox Daily Observations layout. Learn more.

Left ArrowRight Arrow

40.97296, -117.73568

Hourly Observations for January 31, 2022

Temp ( °F °C ) Dew Point ( °F °C ) Humidity (%) Winds ( mph kmh ) Pressure ( in mb ) Visibility ( mi km ) Precip ( " mm )
12:56 am 00:56 Mostly Clear 37 2.8 14 -10 39 39 W 7 11 30.13 1020 10 16 0.00 0.00
1:56 am 01:56 Clear 31 -0.6 15 -9.4 52 52 ESE 5 7 30.12 1020 10 16 0.00 0.00
2:56 am 02:56 Clear 28 -2.2 14 -10 56 56 Calm 30.12 1020 10 16 0.00 0.00
3:56 am 03:56 Clear 37 2.8 16 -8.9 42 42 SE 8 13 30.10 1019 10 16 0.00 0.00
4:56 am 04:56 Clear 32 0 16 -8.9 52 52 NNW 3 6 30.12 1020 10 16 0.00 0.00
5:56 am 05:56 Clear 34 1.1 17 -8.3 50 50 NW 5 7 30.18 1022 10 16 0.00 0.00
6:56 am 06:56 Clear 32 0 17 -8.3 54 54 Calm 30.19 1023 10 16 0.00 0.00
7:56 am 07:56 Sunny 37 2.8 20 -6.7 50 50 Calm 30.21 1023 10 16 0.00 0.00
8:56 am 08:56 Sunny 42 5.6 22 -5.6 45 45 WNW 9 15 30.20 1023 10 16 0.00 0.00
9:56 am 09:56 Sunny 45 7.2 20 -6.7 37 37 VRB 5 7 30.18 1022 10 16 0.00 0.00
10:56 am 10:56 Sunny 46 7.8 21 -6.1 37 37 NNW 7 11 30.17 1022 10 16 0.00 0.00
11:56 am 11:56 Partly Cloudy 47 8.3 20 -6.7 34 34 N 6 9 30.14 1021 10 16 0.00 0.00
12:56 pm 12:56 Sunny 47 8.3 20 -6.7 34 34 NNW 6 9 30.12 1020 10 16 0.00 0.00
1:56 pm 13:56 Sunny 48 8.9 19 -7.2 32 32 NNW 12 19 30.10 1019 10 16 0.00 0.00
2:56 pm 14:56 Sunny 48 8.9 15 -9.4 27 27 NW 13 20 30.10 1019 10 16 0.00 0.00
3:56 pm 15:56 Sunny 45 7.2 16 -8.9 31 31 N 9 15 30.09 1019 10 16 0.00 0.00
4:56 pm 16:56 Sunny 42 5.6 14 -10 32 32 NNE 7 11 30.11 1020 10 16 0.00 0.00
5:56 pm 17:56 Clear 36 2.2 11 -11.7 35 35 NE 8 13 30.12 1020 10 16 0.00 0.00
6:56 pm 18:56 Clear 28 -2.2 12 -11.1 51 51 WNW 9 15 30.16 1021 10 16 0.00 0.00
7:56 pm 19:56 Clear 25 -3.9 11 -11.7 55 55 NNW 8 13 30.16 1021 10 16 0.00 0.00
8:56 pm 20:56 Clear 29 -1.7 10 -12.2 45 45 N 10 17 30.15 1021 10 16 0.00 0.00
9:56 pm 21:56 Clear 29 -1.7 11 -11.7 47 47 NE 10 17 30.16 1022 10 16 0.00 0.00
10:56 pm 22:56 Clear 28 -2.2 14 -10 56 56 NE 17 28 30.17 1022 10 16 0.00 0.00
11:56 pm 23:56 Clear 27 -2.8 13 -10.6 55 55 NNE 10 17 30.17 1022 10 16 0.00 0.00

Powered by AerisWeather